Actual water levels and discharges of Vltava river

Vraňany

Date and time (UTC) H (cm) Q (m³/s)
8. 2. 2023 18:10 123 180
8. 2. 2023 18:00 125 183
8. 2. 2023 17:00 132 194
8. 2. 2023 16:00 128 188
8. 2. 2023 15:00 120 176
8. 2. 2023 14:00 107 157
8. 2. 2023 13:00 101 149
8. 2. 2023 12:00 106 156
8. 2. 2023 11:00 118 173
8. 2. 2023 10:00 126 185
8. 2. 2023 09:00 119 174
8. 2. 2023 08:00 122 179
8. 2. 2023 07:00 128 188
8. 2. 2023 06:00 129 189

H - water level, Q - discharge

Praha-Chuchle

Date and time (UTC) H (cm) Q (m³/s)
8. 2. 2023 18:10 79 181
8. 2. 2023 18:00 79 181
8. 2. 2023 17:00 79 181
8. 2. 2023 16:00 78 176
8. 2. 2023 15:00 79 181
8. 2. 2023 14:00 79 181
8. 2. 2023 13:00 79 181
8. 2. 2023 12:00 79 181
8. 2. 2023 11:00 79 181
8. 2. 2023 10:00 79 181
8. 2. 2023 09:00 78 176
8. 2. 2023 08:00 76 167
8. 2. 2023 07:00 78 176
8. 2. 2023 06:00 79 181

H - water level, Q - discharge
more information

VD Vrané nad Vltavou

Date and time (UTC) H (m n. m.) Q (m³/s)
8. 2. 2023 18:20 199.76 140.3
8. 2. 2023 18:00 199.72 146
8. 2. 2023 17:00 199.66 145
8. 2. 2023 16:00 199.63 145
8. 2. 2023 15:00 199.65 144
8. 2. 2023 14:00 199.73 144
8. 2. 2023 13:00 199.84 145
8. 2. 2023 12:00 199.90 145
8. 2. 2023 11:00 199.92 145
8. 2. 2023 10:00 199.86 146
8. 2. 2023 09:00 199.76 145
8. 2. 2023 08:00 199.67 146
8. 2. 2023 07:00 199.58 145
8. 2. 2023 06:00 199.56 145

H - water level, Q - outflow

VD Štěchovice

Date and time (UTC) H (m n. m.) Q (m³/s)
8. 2. 2023 18:20 217.86 129.9
8. 2. 2023 18:00 217.88 130
8. 2. 2023 17:00 218.08 119
8. 2. 2023 16:00 218.26 119
8. 2. 2023 15:00 218.66 49
8. 2. 2023 14:00 218.84 49
8. 2. 2023 13:00 218.78 49
8. 2. 2023 12:00 218.69 49
8. 2. 2023 11:00 218.58 119
8. 2. 2023 10:00 218.74 160
8. 2. 2023 09:00 218.71 160
8. 2. 2023 08:00 218.58 160
8. 2. 2023 07:00 218.48 160
8. 2. 2023 06:00 218.78 76

H - water level, Q - outflow

VD Slapy

Date and time (UTC) H (m n. m.) Q (m³/s)
8. 2. 2023 18:20 267.25 97.8
8. 2. 2023 18:00 267.27 89
8. 2. 2023 17:00 267.24 79
8. 2. 2023 16:00 267.23 0
8. 2. 2023 15:00 267.17 0
8. 2. 2023 14:00 267.13 73
8. 2. 2023 13:00 267.13 77
8. 2. 2023 12:00 267.09 73
8. 2. 2023 11:00 267.10 69
8. 2. 2023 10:00 267.04 134
8. 2. 2023 09:00 266.97 192
8. 2. 2023 08:00 266.96 198
8. 2. 2023 07:00 266.95 124
8. 2. 2023 06:00 266.93 79

H - water level, Q - outflow

VD Kamýk

Date and time (UTC) H (m n. m.) Q (m³/s)
8. 2. 2023 18:20 282.53 -
8. 2. 2023 18:00 282.53 -
8. 2. 2023 17:00 282.47 -
8. 2. 2023 16:00 282.54 -
8. 2. 2023 15:00 282.67 -
8. 2. 2023 14:00 282.80 -
8. 2. 2023 13:00 283.05 -
8. 2. 2023 12:00 283.34 -
8. 2. 2023 11:00 283.58 -
8. 2. 2023 10:00 283.53 -
8. 2. 2023 09:00 283.26 -
8. 2. 2023 08:00 282.83 -
8. 2. 2023 07:00 282.37 -
8. 2. 2023 06:00 282.49 -

H - water level, Q - outflow

VD Orlík

Date and time (UTC) H (m n. m.) Q (m³/s)
8. 2. 2023 18:20 337.74 119.3
8. 2. 2023 18:00 337.74 117
8. 2. 2023 17:00 337.75 102
8. 2. 2023 16:00 337.75 97
8. 2. 2023 15:00 337.74 84
8. 2. 2023 14:00 337.73 0
8. 2. 2023 13:00 337.71 0
8. 2. 2023 12:00 337.68 0
8. 2. 2023 11:00 337.67 110
8. 2. 2023 10:00 337.67 397
8. 2. 2023 09:00 337.77 504
8. 2. 2023 08:00 337.85 512
8. 2. 2023 07:00 337.93 168
8. 2. 2023 06:00 337.94 102

H - water level, Q - outflow

VD Kořensko

Date and time (UTC) H (m n. m.) Q (m³/s)
8. 2. 2023 18:20 352.63 87.9
8. 2. 2023 18:00 352.63 88
8. 2. 2023 17:00 352.62 87
8. 2. 2023 16:00 352.61 86
8. 2. 2023 15:00 352.60 84
8. 2. 2023 14:00 352.59 83
8. 2. 2023 13:00 352.58 83
8. 2. 2023 12:00 352.59 83
8. 2. 2023 11:00 352.58 82
8. 2. 2023 10:00 352.58 83
8. 2. 2023 09:00 352.59 83
8. 2. 2023 08:00 352.60 84
8. 2. 2023 07:00 352.62 86
8. 2. 2023 06:00 352.63 88

H - water level, Q - outflow

VD Hněvkovice I - přehrada

Date and time (UTC) H (m n. m.) Q (m³/s)
- - -

H - water level, Q - outflow

České Budějovice

Date and time (UTC) H (cm) Q (m³/s)
8. 2. 2023 18:10 115 37.8
8. 2. 2023 18:00 115 38
8. 2. 2023 17:00 114 36
8. 2. 2023 16:00 113 34
8. 2. 2023 15:00 113 34
8. 2. 2023 14:00 112 33
8. 2. 2023 13:00 113 34
8. 2. 2023 12:00 112 33
8. 2. 2023 11:00 112 32
8. 2. 2023 10:00 111 30
8. 2. 2023 09:00 112 33
8. 2. 2023 08:00 112 33
8. 2. 2023 07:00 113 35
8. 2. 2023 06:00 111 32

H - water level, Q - discharge
more information

Vyšší Brod

Date and time (UTC) H (cm) Q (m³/s)
8. 2. 2023 18:10 111 22
8. 2. 2023 18:00 111 22
8. 2. 2023 17:00 111 22
8. 2. 2023 16:00 111 22
8. 2. 2023 15:00 111 22
8. 2. 2023 14:00 111 22
8. 2. 2023 13:00 111 22
8. 2. 2023 12:00 111 22
8. 2. 2023 11:00 111 22
8. 2. 2023 10:00 111 22
8. 2. 2023 09:00 111 22
8. 2. 2023 08:00 112 22
8. 2. 2023 07:00 112 22
8. 2. 2023 06:00 113 23

H - water level, Q - discharge
Source data
Labe Basin Vltava Basin Povodí Moravy ČHMÚ